Garden City, KS

11:22 AM CDT on March 25, 2017 (GMT -0500)
Garden City Regional

Weather History for KGCK - June, 2013

Change the Weather History Date:

Saturday, June 29, 2013

  Actual Average Record
Temperature  
Mean Temperature 79 °F 77 °F  
Max Temperature 93 °F 90 °F 109 °F (1968)
Min Temperature 65 °F 63 °F 50 °F (2007)
Degree Days  
Heating Degree Days 0 0  
Month to date heating degree days 12 14  
Since 1 June heating degree days 12 14  
Since 1 July heating degree days 5211 5205  
Cooling Degree Days 14 12  
Month to date cooling degree days 382 241  
Year to date cooling degree days 529 330  
Since 1 June cooling degree days 382 241  
Growing Degree Days 28 (Base 50)    
Moisture  
Dew Point 52 °F    
Average Humidity 48    
Maximum Humidity 73    
Minimum Humidity 23    
Precipitation  
Precipitation 0.01 in 0.11 in 1.49 in (1995)
Month to date precipitation 2.14 3.37  
Year to date precipitation 3.71 10.31  
Sea Level Pressure  
Sea Level Pressure 29.98 in    
Wind  
Wind Speed 7 mph (NE)    
Max Wind Speed 22 mph    
Max Gust Speed 28 mph    
Visibility 10 miles    
Events Rain , Thunderstorm    
T = Trace of Precipitation, MM = Missing Value Source: NWS Daily Summary

Daily Weather History Graph

Daily Weather History Graph

Search for Another Location

Airport or City:

Trip Planner

Search our weather history database for the weather conditions in past years. The results will help you decide how hot, cold, wet, or windy it might be!

Date:

Astronomy

Jun. 29, 2013 Rise Set
Actual Time 6:23 AM CDT 9:09 PM CDT
Civil Twilight 5:52 AM CDT 9:40 PM CDT
Nautical Twilight 5:12 AM CDT 10:19 PM CDT
Astronomical Twilight 4:28 AM CDT 11:04 PM CDT
Moon 12:46 AM CDT (6/29) 1:29 PM CDT (6/29)
Length of Visible Light 15h 48m
Length of Day
14h 45m
Waning Gibbous, 55% of the Moon is Illuminated
Jun 29
Waning Gibbous
Jun 29
Last Quarter
Jul 8
New
Jul 15
First Quarter
Jul 22
Full

Hourly Weather History & Observations

Time (CDT) Temp. Dew Point Humidity Pressure Visibility Wind Dir Wind Speed Gust Speed Precip Events Conditions
12:54 AM 75.0 °F 51.1 °F 43% 29.97 in 10.0 mi ENE 9.2 mph - N/A   Clear
1:54 AM 73.0 °F 51.1 °F 46% 29.98 in 10.0 mi East 4.6 mph - N/A   Clear
2:54 AM 73.0 °F 52.0 °F 48% 29.96 in 10.0 mi ENE 6.9 mph - N/A   Clear
3:54 AM 70.0 °F 53.1 °F 55% 29.97 in 10.0 mi East 5.8 mph - N/A   Clear
4:54 AM 68.0 °F 55.9 °F 65% 30.00 in 10.0 mi North 6.9 mph - 0.00 in Rain Light Rain
5:07 AM 66.2 °F 57.2 °F 73% 30.13 in 10.0 mi NNW 9.2 mph - 0.00 in Thunderstorm Mostly Cloudy
5:54 AM 68.0 °F 57.0 °F 68% 30.02 in 10.0 mi Calm Calm - 0.01 in Thunderstorm Partly Cloudy
6:15 AM 66.2 °F 59.0 °F 78% 30.10 in 10.0 mi ESE 8.1 mph - N/A   Partly Cloudy
6:54 AM 66.0 °F 57.9 °F 75% 30.01 in 10.0 mi WSW 4.6 mph - N/A   Clear
7:54 AM 68.0 °F 59.0 °F 73% 30.00 in 10.0 mi Calm Calm - N/A   Clear
8:54 AM 72.0 °F 55.0 °F 55% 30.05 in 10.0 mi North 8.1 mph - N/A   Clear
9:54 AM 73.9 °F 53.1 °F 48% 30.01 in 10.0 mi Calm Calm - N/A   Clear
10:54 AM 80.1 °F 52.0 °F 38% 30.02 in 10.0 mi ENE 3.5 mph - N/A   Clear
11:54 AM 82.0 °F 51.1 °F 34% 30.01 in 10.0 mi Calm Calm - N/A   Clear
12:54 PM 87.1 °F 50.0 °F 28% 29.99 in 10.0 mi NE 5.8 mph - N/A   Clear
1:54 PM 90.0 °F 48.9 °F 24% 29.96 in 10.0 mi NW 8.1 mph - N/A   Partly Cloudy
2:54 PM 90.0 °F 48.9 °F 24% 29.94 in 10.0 mi NNE 13.8 mph 19.6 mph N/A   Scattered Clouds
3:54 PM 90.0 °F 48.9 °F 24% 29.93 in 10.0 mi NNW 8.1 mph 21.9 mph N/A   Mostly Cloudy
4:54 PM 90.0 °F 48.9 °F 24% 29.90 in 10.0 mi NNE 12.7 mph - N/A   Overcast
5:54 PM 91.9 °F 48.0 °F 22% 29.88 in 10.0 mi North 11.5 mph 18.4 mph N/A   Mostly Cloudy
6:54 PM 91.0 °F 50.0 °F 24% 29.87 in 10.0 mi NE 12.7 mph - N/A   Partly Cloudy
7:54 PM 84.9 °F 51.1 °F 31% 29.88 in 10.0 mi ENE 13.8 mph - N/A   Clear
8:54 PM 82.0 °F 52.0 °F 35% 29.91 in 10.0 mi ENE 9.2 mph - N/A   Clear
9:54 PM 78.1 °F 52.0 °F 40% 29.94 in 10.0 mi ENE 10.4 mph - N/A   Clear
10:54 PM 75.0 °F 51.1 °F 43% 29.96 in 10.0 mi East 8.1 mph - N/A   Clear
11:54 PM 71.1 °F 50.0 °F 47% 29.98 in 10.0 mi East 9.2 mph - N/A   Clear